Weather History for Fort Myers Airport, FL

Change the Weather History Date:

Thursday, March 28, 2013

  Actual Average Record
Temperature  
Mean Temperature 58 °F -  
Max Temperature 75 °F 82 °F 93 °F (1998)
Min Temperature 42 °F 60 °F 42 °F (2013)
Degree Days  
Heating Degree Days 6    
Growing Degree Days 8 (Base 50)    
Moisture  
Dew Point 36 °F    
Average Humidity 50    
Maximum Humidity 82    
Minimum Humidity 14    
Precipitation  
Precipitation 0.00 in - - ()
Sea Level Pressure  
Sea Level Pressure 30.25 in    
Wind  
Wind Speed 6 mph (NNE)    
Max Wind Speed 9 mph    
Max Gust Speed 16 mph    
Visibility 10 miles    
Events      
Averages and records for this station are not official NWS values.
T = Trace of Precipitation, MM = Missing Value Source: NWS Daily Summary

Daily Weather History Graph

Daily Weather History Graph

Search for Another Location

Airport:

Trip Planner

Search our weather history database for the weather conditions in past years. The results will help you decide how hot, cold, wet, or windy it might be!

Date:

Astronomy

Mar. 28, 2013 Rise Set
Actual Time 7:21 AM EDT 7:42 PM EDT
Civil Twilight 6:58 AM EDT 8:05 PM EDT
Nautical Twilight 6:31 AM EDT 8:32 PM EDT
Astronomical Twilight 6:04 AM EDT 9:00 PM EDT
Moon 9:18 PM EDT (3/28) 7:59 AM EDT (3/28)
Length of Visible Light 13h 06m
Length of Day
12h 20m
Full, 98% of the Moon is Illuminated
Mar 28
Full
Apr 3
Last Quarter
Apr 10
New
Apr 18
First Quarter
Apr 25
Full

Hourly Weather History & Observations

Time (EDT) Temp. Windchill Dew Point Humidity Pressure Visibility Wind Dir Wind Speed Gust Speed Precip Events Conditions
12:53 AM 48.9 °F - 36.0 °F 61% 30.26 in 10.0 mi North 8.1 mph - N/A   Clear
1:53 AM 46.9 °F - 37.0 °F 68% 30.27 in 10.0 mi North 8.1 mph - N/A   Clear
2:53 AM 46.0 °F 42.5 °F 36.0 °F 68% 30.25 in 10.0 mi North 6.9 mph - N/A   Clear
3:53 AM 45.0 °F 43.5 °F 37.0 °F 74% 30.23 in 10.0 mi North 3.5 mph - N/A   Clear
4:53 AM 45.0 °F 42.6 °F 37.0 °F 74% 30.23 in 10.0 mi North 4.6 mph - N/A   Clear
5:53 AM 44.1 °F 41.5 °F 37.0 °F 76% 30.23 in 10.0 mi NNE 4.6 mph - N/A   Clear
6:53 AM 42.1 °F 40.2 °F 37.0 °F 82% 30.25 in 10.0 mi NE 3.5 mph - N/A   Clear
7:53 AM 42.1 °F - 37.0 °F 82% 30.25 in 10.0 mi Calm Calm - N/A   Clear
8:53 AM 50.0 °F - 39.9 °F 68% 30.28 in 10.0 mi NNE 3.5 mph - N/A   Clear
9:53 AM 57.0 °F - 39.9 °F 53% 30.30 in 10.0 mi NNE 6.9 mph - N/A   Clear
10:53 AM 62.1 °F - 34.0 °F 35% 30.31 in 10.0 mi ENE 8.1 mph - N/A   Clear
11:53 AM 64.0 °F - 32.0 °F 30% 30.30 in 10.0 mi Variable 3.5 mph - N/A   Clear
12:53 PM 66.9 °F - 30.0 °F 25% 30.28 in 10.0 mi North 8.1 mph - N/A   Clear
1:53 PM 70.0 °F - 28.9 °F 22% 30.25 in 10.0 mi Variable 6.9 mph 16.1 mph N/A   Clear
2:53 PM 72.0 °F - 30.0 °F 21% 30.22 in 10.0 mi NNE 6.9 mph 16.1 mph N/A   Clear
3:53 PM 73.9 °F - 28.0 °F 18% 30.19 in 10.0 mi ENE 4.6 mph 16.1 mph N/A   Clear
4:53 PM 75.0 °F - 25.0 °F 16% 30.18 in 10.0 mi NE 6.9 mph - N/A   Clear
5:53 PM 73.9 °F - 21.0 °F 14% 30.18 in 10.0 mi North 4.6 mph - N/A   Clear
6:53 PM 68.0 °F - 41.0 °F 37% 30.19 in 10.0 mi WNW 9.2 mph - N/A   Clear
7:53 PM 63.0 °F - 43.0 °F 48% 30.22 in 10.0 mi NW 6.9 mph - N/A   Clear
8:53 PM 60.1 °F - 43.0 °F 53% 30.24 in 10.0 mi Calm Calm - N/A   Clear
9:53 PM 59.0 °F - 43.0 °F 55% 30.26 in 10.0 mi Calm Calm - N/A   Clear
10:53 PM 57.0 °F - 43.0 °F 59% 30.27 in 10.0 mi Calm Calm - N/A   Clear
11:53 PM 54.0 °F - 44.1 °F 69% 30.27 in 10.0 mi Calm Calm - N/A   Clear